Regional Weather Roundup
Issued by NWS

Home | Current Version | Previous Version | Graphics & Text | Print | Product List | Glossary On
Versions: 1 2 3 4 5 6 7 8 9 10 11 12 13 14 15 16 17 18 19 20 21 22 23 24 25 26 27 28 29 30 31 32 33 34 35 36 37 38 39 40 41 42 43 44 45 46 47 48 49 50
000
ASUS43 KOAX 251202
RWRNE

WEATHER ROUNDUP FOR NEBRASKA
NATIONAL WEATHER SERVICE OMAHA NE
700 AM CDT WED MAY 25 2016

NOTES: SATELLITE DATA IS BEING USED TO AUGMENT CLOUD COVER ABOVE
       12000 FEET.
       "FAIR" INDICATES FEW OR NO CLOUDS BELOW 12,000 FEET WITH NO
       SIGNIFICANT WEATHER AND/OR OBSTRUCTIONS TO VISIBILITY.

  * THESE STATIONS DO NOT REPORT WEATHER SUCH AS RAIN...SNOW OR FOG.

NEZ001>004-019>022-054>056-251300-
NEBRASKA PANHANDLE

CITY           SKY/WX    TMP DP  RH WIND       PRES   REMARKS
SCOTTSBLUFF    CLOUDY    51  47  86 W5        29.93R
6HR MIN TEMP:  47; 6HR MAX TEMP:  52;

ALLIANCE       CLOUDY    50  49  96 SW8       29.89R
6HR MIN TEMP:  50; 6HR MAX TEMP:  52;

CHADRON        CLOUDY    44  50 100 W10       29.89R
6HR MIN TEMP:  43; 6HR MAX TEMP:  53; 6HR PCP: TRACE;

SIDNEY         FOG       49  47  93 W9        29.94R VSB 3/4
6HR MIN TEMP:  45; 6HR MAX TEMP:  54; 6HR PCP:  0.15;

$$

NEZ057>060-069>072-079>082-251300-
SOUTHWEST NEBRASKA

CITY           SKY/WX    TMP DP  RH WIND       PRES   REMARKS
NORTH PLATTE   CLOUDY    54  53  97 E7        29.89F
6HR MIN TEMP:  53; 6HR MAX TEMP:  58; 6HR PCP:  0.08;

IMPERIAL       CLEAR     52  49  89 E5        29.89F
6HR MIN TEMP:  52; 6HR MAX TEMP:  59; 6HR PCP:  0.02;

LEXINGTON      CLOUDY    58  55  89 SE9       29.88R
MCCOOK         CLOUDY    60  55  83 E8        29.87R
6HR MIN TEMP:  58; 6HR MAX TEMP:  62; 6HR PCP:  0.16;

$$

NEZ005>010-023>029-035>040-094-251300-
NORTH CENTRAL NEBRASKA

CITY           SKY/WX    TMP DP  RH WIND       PRES   REMARKS
VALENTINE      CLOUDY    57  53  86 SW9       29.83R
6HR MIN TEMP:  56; 6HR MAX TEMP:  57;

AINSWORTH      CLOUDY    55  55  98 SW3       29.83R
BROKEN BOW     CLOUDY    57  55  93 S9        29.84R
6HR MIN TEMP:  57; 6HR MAX TEMP:  62; 6HR PCP:  0.21;

ORD            CLOUDY    59  57  93 SE6       29.82F
6HR MIN TEMP:  57; 6HR MAX TEMP:  68; 6HR PCP:  0.54;

$$

NEZ041-046>049-061>064-073>077-083>087-251300-
SOUTH CENTRAL NEBRASKA

CITY           SKY/WX    TMP DP  RH WIND       PRES   REMARKS
GRAND ISLAND   CLOUDY    60  58  92 E8        29.88F
6HR MIN TEMP:  59; 6HR MAX TEMP:  70; 6HR PCP:  0.34;

HASTINGS       LGT RAIN  59  59 100 CALM      29.93F
6HR MIN TEMP:  59; 6HR MAX TEMP:  70; 6HR PCP:  0.60;

KEARNEY *      CLOUDY    59  55  88 E5        29.91R
YORK           RAIN      63  59  88 NW24      29.92R
$$

NEZ011>018-030>034-042>045-251300-
NORTHEAST NEBRASKA

CITY           SKY/WX    TMP DP  RH WIND       PRES   REMARKS
NORFOLK        LGT RAIN  62  58  86 S8        29.89R
6HR MIN TEMP:  60; 6HR MAX TEMP:  70; 6HR PCP:  0.18;

ALBION         RAIN      60  57  91 SE6       29.86F
BLAIR          MOCLDY    66  58  74 N3        29.84S
FREMONT        CLOUDY    64  58  80 CALM      29.84S
TEKAMAH        CLOUDY    62  59  90 SW3       29.83R
6HR MIN TEMP:  62; 6HR MAX TEMP:  70; 6HR PCP:  0.02;

$$

NEZ050>053-065>068-078-088>093-251300-
SOUTHEAST NEBRASKA

CITY           SKY/WX    TMP DP  RH WIND       PRES   REMARKS
LINCOLN        LGT RAIN  63  59  87 S9        29.84F
6HR MIN TEMP:  63; 6HR MAX TEMP:  69; 6HR PCP:  0.14;

OMAHA EPPLEY   CLOUDY    65  61  87 E8        29.84R
6HR MIN TEMP:  64; 6HR MAX TEMP:  73; 6HR PCP:  0.50;

FALLS CITY     CLOUDY    64  59  83 W9        29.86R
6HR MIN TEMP:  63; 6HR MAX TEMP:  72; 6HR PCP:  0.13;

$$

NEZ044-045-051>053-067-251300-
OMAHA AREA

CITY           SKY/WX    TMP DP  RH WIND       PRES   REMARKS
OMAHA EPPLEY   CLOUDY    65  61  87 E8        29.84R
6HR MIN TEMP:  64; 6HR MAX TEMP:  73; 6HR PCP:  0.50;

BLAIR          MOCLDY    66  58  74 N3        29.84S
FREMONT        CLOUDY    64  58  80 CALM      29.84S
$$




USA.gov is the U.S. government's official web portal to all federal, state and local government web resources and services.